Regional Weather Roundup
Issued by NWS

Home | Current Version | Previous Version | Graphics & Text | Print | Product List | Glossary On
Versions: 1 2 3 4 5 6 7 8 9 10 11 12 13 14 15 16 17 18 19 20 21 22 23 24 25 26 27 28 29 30 31 32 33 34 35 36 37 38 39 40 41 42 43 44 45 46 47 48 49 50
000
ASUS43 KOAX 211702
RWRNE

WEATHER ROUNDUP FOR NEBRASKA
NATIONAL WEATHER SERVICE OMAHA NE
1100 AM CST SAT JAN 21 2017

NOTES: SATELLITE DATA IS BEING USED TO AUGMENT CLOUD COVER ABOVE
       12000 FEET.
       "FAIR" INDICATES FEW OR NO CLOUDS BELOW 12,000 FEET WITH NO
       SIGNIFICANT WEATHER AND/OR OBSTRUCTIONS TO VISIBILITY.

  * THESE STATIONS DO NOT REPORT WEATHER SUCH AS RAIN...SNOW OR FOG.

NEZ001>004-019>022-054>056-211800-
NEBRASKA PANHANDLE

CITY           SKY/WX    TMP DP  RH WIND       PRES   REMARKS
SCOTTSBLUFF    SUNNY     31  25  78 CALM      29.43R
ALLIANCE       SUNNY     32  27  81 W5        29.41R WCI  27
CHADRON        SUNNY     29  24  82 W9        29.43R WCI  20
KIMBALL        SUNNY     39  29  69 S15       29.41R WCI  30
SIDNEY         SUNNY     35  26  69 CALM      29.43R
$$

NEZ057>060-069>072-079>082-211800-
SOUTHWEST NEBRASKA

CITY           SKY/WX    TMP DP  RH WIND       PRES   REMARKS
NORTH PLATTE   SUNNY     37  30  75 W8        29.45R WCI  31
IMPERIAL       SUNNY     39  26  59 NW6       29.44F WCI  35
LEXINGTON      SUNNY     39  33  81 W6        29.45S WCI  34
MCCOOK         SUNNY     38  32  79 NW7       29.45S WCI  33
OGALLALA       SUNNY     34  30  85 W8        29.45S WCI  27
$$

NEZ005>010-023>029-035>040-094-211800-
NORTH CENTRAL NEBRASKA

CITY           SKY/WX    TMP DP  RH WIND       PRES   REMARKS
VALENTINE      SUNNY     41  32  70 W10       29.40R
AINSWORTH      SUNNY     41  34  76 NW9       29.40S
BROKEN BOW     SUNNY     41  36  82 CALM      29.43R
O`NEILL        SUNNY     42  35  76 W10       29.41S
ORD            SUNNY     42  35  76 W6        29.43R
THEDFORD       SUNNY     39  35  86 W5        29.43R
$$

NEZ041-046>049-061>064-073>077-083>087-211800-
SOUTH CENTRAL NEBRASKA

CITY           SKY/WX    TMP DP  RH WIND       PRES   REMARKS
GRAND ISLAND   SUNNY     43  39  86 W8        29.45R
AURORA         SUNNY     41  41 100 W6        29.45R
HASTINGS       SUNNY     41  36  82 W6        29.46R
HEBRON         SUNNY     41  41 100 NW3       29.48R
HOLDREGE       SUNNY     40  36  85 W5        29.45S
KEARNEY *      SUNNY     39  -9  12 SW7       29.46R WCI  34
YORK           SUNNY     41  39  93 W8        29.45R
$$

NEZ011>018-030>034-042>045-211800-
NORTHEAST NEBRASKA

CITY           SKY/WX    TMP DP  RH WIND       PRES   REMARKS
NORFOLK        SUNNY     42  35  76 W9        29.42R
ALBION         MOSUNNY  N/A N/A N/A W6        29.43S
BLAIR          MOSUNNY   39  39  99 W6        29.43S WCI  35
FREMONT        SUNNY     41  41 100 W9        29.45S
TEKAMAH        PTSUNNY   39  37  92 SW8       29.44S WCI  33
WAYNE          CLOUDY    40  35  84 W10       29.43R WCI  33
$$

NEZ050>053-065>068-078-088>093-211800-
SOUTHEAST NEBRASKA

CITY           SKY/WX    TMP DP  RH WIND       PRES   REMARKS
LINCOLN        SUNNY     45  38  76 SW3       29.47R
OMAHA EPPLEY   PTSUNNY   44  39  82 W5        29.44F
BEATRICE       SUNNY     42  41  97 SW5       29.49R
FALLS CITY     CLOUDY    43  41  93 S9        29.52R
NEBRASKA CITY  CLOUDY    38  38 100 SW8       29.48R FOG     WCI  32
PLATTSMOUTH    SUNNY     43  41  93 SW6       29.46R
$$

NEZ044-045-051>053-067-211800-
OMAHA AREA

CITY           SKY/WX    TMP DP  RH WIND       PRES   REMARKS
OMAHA EPPLEY   PTSUNNY   44  39  82 W5        29.44F
BLAIR          MOSUNNY   39  39  99 W6        29.43S WCI  35
FREMONT        SUNNY     41  41 100 W9        29.45S
MILLARD        SUNNY     43  41  93 W5        29.45R
OFFUTT AFB     SUNNY     42  42 100 W6        29.45S
PLATTSMOUTH    SUNNY     43  41  93 SW6       29.46R
WAHOO          FAIR      42  40  93 W5        29.44S
$$




USA.gov is the U.S. government's official web portal to all federal, state and local government web resources and services.